STARLINK-30051 (55704 NORAD) Tracking and Keplerian Element Data

This shows tracking and keplerian element data for the satellite.

Feedback or suggestion? Click here.




ElementValue
Catalog55704
NameSTARLINK-30051
Epoch Orbit514
Epoch Day85.25001157
Epoch Year2023
RAAN126.3991
Inclination43.0034
Eccentricity0.0001836
Argument of Perigee301.9731
Mean Anonmoly42.4911
Mean Motion15.67881485
Decay Rate0.00097076
L11 55704U 23026K 23085.25001157 .00097076 00000+0 84903-3 0 9998
L22 55704 43.0034 126.3991 0001836 301.9731 42.4911 15.67881485 5144



Live tracking and technical data element details for STARLINK-30051 (NORAD 55704). STARLINK-30051 can be tracked NOW for your location showing map with azimuth and elevation plus other details from your city location.







IsCatalogInMostPopularTable: catalog: 55704, numindb: 4
Update: records affected: 1



GetName: 55704 STARLINK-30051

Hit Count: updated at: Tue, 28 Mar 2023 01:53:33 GMT